{"data":{"norad_id":52628,"intl_designator":"2022-052AG","name":"STARLINK-4001","alt_names":[],"object_type":"PAYLOAD","status":"ACTIVE","operator":null,"country":"US","launch_date":"2022-05-14","launch_site_code":"AFETR","launch_vehicle":null,"mission":null,"orbit_class":"UNKNOWN","rcs_meters":null,"size_class":null,"mass_kg":null,"dimensions":null,"purposes":["comms"],"wikipedia_slug":null,"has_3d_model":false,"image_url":null,"decayed_at":null,"tle_current":{"epoch":"2026-05-25T03:19:44.486976Z","epoch_age_seconds":56918,"freshness":"FRESH","line1":"1 52628U 22052AG  26145.13870934 -.00001086  00000+0 -50121-4 0  9996","line2":"2 52628  53.2126 300.9270 0001545  95.4757 264.6411 15.08847985222327","mean_motion":15.08847985,"eccentricity":0.0001545,"inclination_deg":53.2126,"raan_deg":300.927,"arg_perigee_deg":95.4757,"mean_anomaly_deg":264.6411,"bstar":-5.0121e-5,"rev_number":22232,"period_min":95.437049611065,"perigee_km":538.65017337195,"apogee_km":540.78779087043,"semimajor_km":6917.8559821212,"source":"CELESTRAK","updated_at":"2026-05-25T13:38:17.203262Z"}}}